Weather History for LIRQ - November, 2013

Change the Weather History Date:

Monday, November 25, 2013

  Actual Average Record
Temperature  
Mean Temperature 45 °F -  
Max Temperature 53 °F 52 °F 68 °F (2002)
Min Temperature 37 °F 37 °F 26 °F (2005)
Degree Days  
Heating Degree Days 20    
Moisture  
Dew Point 30 °F    
Average Humidity 62    
Maximum Humidity 100    
Minimum Humidity 27    
Precipitation  
Precipitation 0.00 in 0.12 in - ()
Sea Level Pressure  
Sea Level Pressure 29.93 in    
Wind  
Wind Speed 6 mph ()    
Max Wind Speed 20 mph    
Max Gust Speed 32 mph    
Visibility 6.2 miles    
Events      
Averages and records for this station are not official NWS values.
T = Trace of Precipitation, MM = Missing Value Source: Averaged Metar Reports

Daily Weather History Graph

Daily Weather History Graph

Search for Another Location

Airport or City:

Trip Planner

Search our weather history database for the weather conditions in past years. The results will help you decide how hot, cold, wet, or windy it might be!

Date:

Astronomy

Nov. 25, 2013 Rise Set
Actual Time 7:22 AM CET 4:41 PM CET
Civil Twilight 6:50 AM CET 5:13 PM CET
Nautical Twilight 6:14 AM CET 5:49 PM CET
Astronomical Twilight 5:40 AM CET 6:23 PM CET
Moon 11:57 PM CET (11/25) 12:24 PM CET (11/25)
Length of Visible Light 10h 23m
Length of Day
9h 19m
Waning Gibbous, 53% of the Moon is Illuminated
Nov 25
Waning Gibbous
Nov 25
Last Quarter
Dec 3
New
Dec 9
First Quarter
Dec 17
Full

Hourly Weather History & Observations

Time (CET) Temp. Windchill Dew Point Humidity Pressure Visibility Wind Dir Wind Speed Gust Speed Precip Events Conditions
12:20 AM 42.8 °F 38.0 °F 39.2 °F 87% 29.80 in - NE 8.1 mph - N/A   Clear
12:50 AM 44.6 °F 41.4 °F 39.2 °F 81% 29.80 in - ENE 5.8 mph - N/A   Clear
1:20 AM 42.8 °F - 39.2 °F 87% 29.80 in - Variable 2.3 mph - N/A   Clear
1:50 AM 42.8 °F - 39.2 °F 87% 29.80 in - Variable 1.2 mph - N/A   Clear
2:20 AM 41.0 °F - 37.4 °F 87% 29.80 in - Calm Calm - N/A   Clear
2:50 AM 41.0 °F - 39.2 °F 93% 29.80 in - Calm Calm - N/A   Clear
3:20 AM 39.2 °F - 37.4 °F 93% 29.80 in - ENE 2.3 mph - N/A   Clear
3:50 AM 41.0 °F - 39.2 °F 93% 29.80 in - Calm Calm - N/A   Clear
4:20 AM 39.2 °F - 37.4 °F 93% 29.80 in - Variable 2.3 mph - N/A   Clear
4:50 AM 39.2 °F 37.0 °F 37.4 °F 93% 29.80 in - East 3.5 mph - N/A   Clear
5:20 AM 37.4 °F 34.9 °F 35.6 °F 93% 29.83 in - East 3.5 mph - N/A   Clear
5:50 AM 37.4 °F - 35.6 °F 93% 29.83 in - Calm Calm - N/A   Clear
6:20 AM 39.2 °F - 39.2 °F 100% 29.83 in - Variable 2.3 mph - N/A   Clear
6:50 AM 39.2 °F - 37.4 °F 93% 29.83 in 6.2 mi Variable 1.2 mph - N/A   Partly Cloudy
7:20 AM 37.4 °F - 37.4 °F 100% 29.83 in - NE 2.3 mph - N/A   Clear
7:50 AM 39.2 °F - 37.4 °F 93% 29.86 in - Variable 2.3 mph - N/A   Clear
11:20 AM 50.0 °F - 39.2 °F 66% 29.95 in 6.2 mi ENE 9.2 mph - N/A   Scattered Clouds
11:50 AM 51.8 °F - 39.2 °F 62% 29.92 in 6.2 mi Variable 3.5 mph - N/A   Partly Cloudy
12:20 PM 53.6 °F - 35.6 °F 51% 29.92 in 6.2 mi SW 6.9 mph - N/A   Partly Cloudy
12:50 PM 53.6 °F - 35.6 °F 51% 29.92 in 6.2 mi NNE 19.6 mph 32.2 mph N/A   Partly Cloudy
1:20 PM 53.6 °F - 35.6 °F 51% 29.95 in 6.2 mi NE 17.3 mph - N/A   Partly Cloudy
1:50 PM 53.6 °F - 32.0 °F 44% 29.95 in 6.2 mi NNE 12.7 mph - N/A   Scattered Clouds
2:20 PM 53.6 °F - 33.8 °F 47% 29.95 in 6.2 mi NE 11.5 mph - N/A   Scattered Clouds
2:50 PM 51.8 °F - 28.4 °F 41% 29.95 in 6.2 mi NE 17.3 mph 29.9 mph N/A   Scattered Clouds
3:20 PM 50.0 °F - 24.8 °F 37% 29.98 in 6.2 mi NE 15.0 mph - N/A   Scattered Clouds
3:50 PM 50.0 °F - 24.8 °F 37% 29.98 in 6.2 mi NE 13.8 mph - N/A   Scattered Clouds
4:20 PM 48.2 °F - 17.6 °F 30% 29.98 in 6.2 mi NE 17.3 mph 31.1 mph N/A   Partly Cloudy
4:50 PM 48.2 °F - 15.8 °F 27% 29.98 in - NE 17.3 mph - N/A   Clear
5:20 PM 46.4 °F 39.8 °F 17.6 °F 32% 30.01 in - NNE 16.1 mph - N/A   Clear
5:50 PM 46.4 °F 40.4 °F 15.8 °F 29% 30.01 in - NNE 13.8 mph - N/A   Clear
6:20 PM 46.4 °F 41.1 °F 17.6 °F 32% 30.01 in - NNE 11.5 mph 24.2 mph N/A   Clear
6:50 PM 44.6 °F 39.2 °F 17.6 °F 34% 30.04 in - NNE 10.4 mph - N/A   Clear
7:20 PM 46.4 °F 40.7 °F 17.6 °F 32% 30.04 in - NNE 12.7 mph - N/A   Clear
7:50 PM 44.6 °F 38.8 °F 17.6 °F 34% 30.04 in - NNE 11.5 mph - N/A   Clear
8:20 PM 44.6 °F 39.7 °F 17.6 °F 34% 30.04 in - NNE 9.2 mph - N/A   Clear
8:50 PM 44.6 °F 39.2 °F 17.6 °F 34% 30.04 in - North 10.4 mph - N/A   Clear
9:20 PM 42.8 °F 37.5 °F 19.4 °F 39% 30.06 in - NNE 9.2 mph - N/A   Clear
9:50 PM 39.2 °F 33.6 °F 23.0 °F 52% 30.06 in - NNE 8.1 mph - N/A   Clear
10:20 PM 37.4 °F 33.8 °F 23.0 °F 56% 30.06 in - NE 4.6 mph - N/A   Clear
10:50 PM 37.4 °F 34.9 °F 23.0 °F 56% 30.06 in - ESE 3.5 mph - N/A   Clear
11:20 PM 37.4 °F - 24.8 °F 60% 30.06 in - Variable 2.3 mph - N/A   Clear
11:50 PM 37.4 °F - 26.6 °F 65% 30.06 in - Variable 2.3 mph - N/A   Clear